Regional Weather Roundup
Issued by NWS Raleigh/Durham, NC

Home | Current Version | Previous Version | Text Only | Print | Product List | Glossary On
Versions: 1 2 3 4 5 6 7 8 9 10 11 12 13 14 15 16 17 18 19 20 21 22 23 24 25 26 27 28 29 30 31 32 33 34 35 36 37 38 39 40 41 42 43 44 45 46 47 48 49 50
000
ASUS42 KRAH 281510
RWRRAH
NORTH CAROLINA WEATHER ROUNDUP
NATIONAL WEATHER SERVICE RALEIGH NC
1100 AM EDT FRI AUG 28 2015

NOTE: "FAIR" INDICATES FEW OR NO CLOUDS BELOW 12,000 FEET WITH NO
SIGNIFICANT WEATHER AND/OR OBSTRUCTIONS TO VISIBILITY.

NCZ001-053-055-056-065-067-281600-
WESTERN NORTH CAROLINA

CITY           SKY/WX    TMP DP  RH WIND       PRES   REMARKS
ASHEVILLE      PTSUNNY   73  59  61 CALM      30.28R
JEFFERSON      MOSUNNY   69  56  63 SE5       30.31S
MORGANTON      SUNNY     76  54  45 S3        30.29R
HICKORY        MOSUNNY   76  55  48 VRB3      30.24R
RUTHERFORDTON  SUNNY     76  57  50 CALM      30.25R
MOUNT AIRY     MOSUNNY   75  63  66 CALM      30.27R
BOONE          MOSUNNY   68  57  67 E3        30.32R
$$

NCZ021-022-025-041-071-084-088-281600-
CENTRAL NORTH CAROLINA

CITY           SKY/WX    TMP DP  RH WIND       PRES   REMARKS
CHARLOTTE      MOSUNNY   78  55  44 E8        30.22R
GREENSBORO     MOSUNNY   75  59  57 CALM      30.23R
WINSTON-SALEM  SUNNY     75  59  57 E6        30.25R
RALEIGH-DURHAM MOSUNNY   78  59  51 E12       30.22R
FORT BRAGG     PTSUNNY   78  60  53 E10       30.19R
FAYETTEVILLE   PTSUNNY   79  62  56 NE10      30.18R
BURLINGTON     SUNNY     77  59  53 NE7       30.23R
LAURINBURG     PTSUNNY   79  60  52 E12       30.20R
$$

NCZ011-015-027-028-043-044-047-080-103-281600-
NORTHEASTERN NORTH CAROLINA

CITY           SKY/WX    TMP DP  RH WIND       PRES   REMARKS
ROCKY MT-WILSO SUNNY     81  59  47 N9        30.21R
GREENVILLE     SUNNY     79  63  57 N10       30.20R
WASHINGTON     MOSUNNY   77  65  66 NE10      30.18R
ELIZABETH CITY MOSUNNY   81  62  52 NE13      30.18R
MANTEO         MOSUNNY   78  64  60 NE15G22   30.17R
CAPE HATTERAS  MOSUNNY   80  66  62 NE9G16    30.14R
$$

NCZ078-087-090-091-093-098-101-281600-
SOUTHEASTERN NORTH CAROLINA

CITY           SKY/WX    TMP DP  RH WIND       PRES   REMARKS
LUMBERTON      PTSUNNY   79  61  53 E8        30.17R
GOLDSBORO      PTSUNNY   78  64  63 N10       30.18R
KINSTON        PTSUNNY   77  66  69 N9        30.19R
KENANSVILLE      N/A     76  65  67 CALM      30.19R
NEW BERN       MOSUNNY   80  65  59 NE14      30.17R
CHERRY POINT   SUNNY     82  64  54 NE15      30.16R
BEAUFORT       MOSUNNY   79  69  71 NE13G20   30.14R
JACKSONVILLE   MOSUNNY   81  63  54 NE12      30.15R
WILMINGTON     CLOUDY    82  68  62 NE10      30.14R
$$



USA.gov is the U.S. government's official web portal to all federal, state and local government web resources and services.